Year,Month,Day,Hour,Minute,Value (Times are PST for temperature in C)
2007,10,23,00,00,12.70
2007,10,23,00,01,12.70
2007,10,23,00,02,12.70
2007,10,23,00,03,12.70
2007,10,23,00,04,12.70
2007,10,23,00,05,12.70
2007,10,23,00,06,12.70
2007,10,23,00,07,12.70
2007,10,23,00,08,12.70
2007,10,23,00,09,12.70
2007,10,23,00,10,12.70
2007,10,23,00,11,12.70
2007,10,23,00,12,12.70
2007,10,23,00,13,12.70
2007,10,23,00,14,12.70
2007,10,23,00,15,12.70
2007,10,23,00,16,12.70
2007,10,23,00,17,12.70
2007,10,23,00,18,12.70
2007,10,23,00,19,12.70
2007,10,23,00,20,12.70
2007,10,23,00,21,12.70
2007,10,23,00,22,12.70
2007,10,23,00,23,12.60
2007,10,23,00,24,12.60
2007,10,23,00,25,12.60
2007,10,23,00,26,12.60
2007,10,23,00,27,12.60
2007,10,23,00,28,12.60
2007,10,23,00,29,12.60
2007,10,23,00,30,12.60
2007,10,23,00,31,12.60
2007,10,23,00,32,12.70
2007,10,23,00,33,12.60
2007,10,23,00,34,12.70
2007,10,23,00,35,12.70
2007,10,23,00,36,12.70
2007,10,23,00,37,12.70
2007,10,23,00,38,12.70
2007,10,23,00,39,12.70
2007,10,23,00,40,12.70
2007,10,23,00,41,12.70
2007,10,23,00,42,12.70
2007,10,23,00,43,12.70
2007,10,23,00,44,12.70
2007,10,23,00,45,12.70
2007,10,23,00,46,12.70
2007,10,23,00,47,12.70
2007,10,23,00,48,12.70
2007,10,23,00,49,12.70
2007,10,23,00,50,12.70
2007,10,23,00,51,12.70
2007,10,23,00,52,12.70
2007,10,23,00,53,12.70
2007,10,23,00,54,12.70
2007,10,23,00,55,12.70
2007,10,23,00,56,12.70
2007,10,23,00,57,12.70
2007,10,23,00,58,12.70
2007,10,23,00,59,12.70
2007,10,23,01,00,12.70
2007,10,23,01,01,12.70
2007,10,23,01,02,12.70
2007,10,23,01,03,12.80
2007,10,23,01,04,12.80
2007,10,23,01,05,12.80
2007,10,23,01,06,12.80
2007,10,23,01,07,12.80
2007,10,23,01,08,12.80
2007,10,23,01,09,12.80
2007,10,23,01,10,12.80
2007,10,23,01,11,12.80
2007,10,23,01,12,12.80
2007,10,23,01,13,12.80
2007,10,23,01,14,12.80
2007,10,23,01,15,12.80
2007,10,23,01,16,12.80
2007,10,23,01,17,12.80
2007,10,23,01,18,12.80
2007,10,23,01,19,12.80
2007,10,23,01,20,12.80
2007,10,23,01,21,12.80
2007,10,23,01,22,12.80
2007,10,23,01,23,12.80
2007,10,23,01,24,12.80
2007,10,23,01,25,12.80
2007,10,23,01,26,12.80
2007,10,23,01,27,12.80
2007,10,23,01,28,12.80
2007,10,23,01,29,12.80
2007,10,23,01,30,12.80
2007,10,23,01,31,12.80
2007,10,23,01,32,12.80
2007,10,23,01,33,12.80
2007,10,23,01,34,12.80
2007,10,23,01,35,12.80
2007,10,23,01,36,12.80
2007,10,23,01,37,12.80
2007,10,23,01,38,12.80
2007,10,23,01,39,12.80
2007,10,23,01,40,12.80
2007,10,23,01,41,12.80
2007,10,23,01,42,12.80
2007,10,23,01,43,12.90
2007,10,23,01,44,12.90
2007,10,23,01,45,12.90
2007,10,23,01,46,12.90
2007,10,23,01,47,12.80
2007,10,23,01,48,12.80
2007,10,23,01,49,12.80
2007,10,23,01,50,12.70
2007,10,23,01,51,12.60
2007,10,23,01,52,12.60
2007,10,23,01,53,12.50
2007,10,23,01,54,12.40
2007,10,23,01,55,12.30
2007,10,23,01,56,12.30
2007,10,23,01,57,12.20
2007,10,23,01,58,12.20
2007,10,23,01,59,12.10
2007,10,23,02,00,12.10
2007,10,23,02,01,12.10
2007,10,23,02,02,12.10
2007,10,23,02,03,12.00
2007,10,23,02,04,12.00
2007,10,23,02,05,12.00
2007,10,23,02,06,12.00
2007,10,23,02,07,12.00
2007,10,23,02,08,12.00
2007,10,23,02,09,12.00
2007,10,23,02,10,12.00
2007,10,23,02,11,12.00
2007,10,23,02,12,11.90
2007,10,23,02,13,11.90
2007,10,23,02,14,11.90
2007,10,23,02,15,11.90
2007,10,23,02,16,11.90
2007,10,23,02,17,11.90
2007,10,23,02,18,11.90
2007,10,23,02,19,11.90
2007,10,23,02,20,11.90
2007,10,23,02,21,11.90
2007,10,23,02,22,11.90
2007,10,23,02,23,11.90
2007,10,23,02,24,11.90
2007,10,23,02,25,11.90
2007,10,23,02,26,11.90
2007,10,23,02,27,11.90
2007,10,23,02,28,12.00
2007,10,23,02,29,12.00
2007,10,23,02,30,12.00
2007,10,23,02,31,12.00
2007,10,23,02,32,12.00
2007,10,23,02,33,12.00
2007,10,23,02,34,12.00
2007,10,23,02,35,12.00
2007,10,23,02,36,12.00
2007,10,23,02,37,11.90
2007,10,23,02,38,11.90
2007,10,23,02,39,11.90
2007,10,23,02,40,11.90
2007,10,23,02,41,11.90
2007,10,23,02,42,11.90
2007,10,23,02,43,11.90
2007,10,23,02,44,11.90
2007,10,23,02,45,11.90
2007,10,23,02,46,11.90
2007,10,23,02,47,11.90
2007,10,23,02,48,11.90
2007,10,23,02,49,11.90
2007,10,23,02,50,11.90
2007,10,23,02,51,11.90
2007,10,23,02,52,11.90
2007,10,23,02,53,11.90
2007,10,23,02,54,11.80
2007,10,23,02,55,11.80
2007,10,23,02,56,11.80
2007,10,23,02,57,11.80
2007,10,23,02,58,11.80
2007,10,23,02,59,11.80
2007,10,23,03,00,11.80
2007,10,23,03,01,11.80
2007,10,23,03,02,11.70
2007,10,23,03,03,11.70
2007,10,23,03,04,11.70
2007,10,23,03,05,11.70
2007,10,23,03,06,11.70
2007,10,23,03,07,11.70
2007,10,23,03,08,11.60
2007,10,23,03,09,11.60
2007,10,23,03,10,11.60
2007,10,23,03,11,11.60
2007,10,23,03,12,11.50
2007,10,23,03,13,11.50
2007,10,23,03,14,11.40
2007,10,23,03,15,11.40
2007,10,23,03,16,11.40
2007,10,23,03,17,11.40
2007,10,23,03,18,11.30
2007,10,23,03,19,11.30
2007,10,23,03,20,11.30
2007,10,23,03,21,11.30
2007,10,23,03,22,11.20
2007,10,23,03,23,11.20
2007,10,23,03,24,11.20
2007,10,23,03,25,11.20
2007,10,23,03,26,11.20
2007,10,23,03,27,11.10
2007,10,23,03,28,11.10
2007,10,23,03,29,11.10
2007,10,23,03,30,11.10
2007,10,23,03,31,11.20
2007,10,23,03,32,11.20
2007,10,23,03,33,11.20
2007,10,23,03,34,11.20
2007,10,23,03,35,11.20
2007,10,23,03,36,11.20
2007,10,23,03,37,11.20
2007,10,23,03,38,11.20
2007,10,23,03,39,11.20
2007,10,23,03,40,11.20
2007,10,23,03,41,11.20
2007,10,23,03,42,11.20
2007,10,23,03,43,11.20
2007,10,23,03,44,11.20
2007,10,23,03,45,11.20
2007,10,23,03,46,11.20
2007,10,23,03,47,11.20
2007,10,23,03,48,11.20
2007,10,23,03,49,11.20
2007,10,23,03,50,11.20
2007,10,23,03,51,11.20
2007,10,23,03,52,11.20
2007,10,23,03,53,11.20
2007,10,23,03,54,11.20
2007,10,23,03,55,11.20
2007,10,23,03,56,11.20
2007,10,23,03,57,11.20
2007,10,23,03,58,11.20
2007,10,23,03,59,11.20
2007,10,23,04,00,11.20
2007,10,23,04,01,11.20
2007,10,23,04,02,11.20
2007,10,23,04,03,11.20
2007,10,23,04,04,11.20
2007,10,23,04,05,11.20
2007,10,23,04,06,11.20
2007,10,23,04,07,11.20
2007,10,23,04,08,11.20
2007,10,23,04,09,11.20
2007,10,23,04,10,11.20
2007,10,23,04,11,11.20
2007,10,23,04,12,11.30
2007,10,23,04,13,11.30
2007,10,23,04,14,11.30
2007,10,23,04,15,11.30
2007,10,23,04,16,11.30
2007,10,23,04,17,11.40
2007,10,23,04,18,11.40
2007,10,23,04,19,11.40
2007,10,23,04,20,11.40
2007,10,23,04,21,11.40
2007,10,23,04,22,11.40
2007,10,23,04,23,11.40
2007,10,23,04,24,11.40
2007,10,23,04,25,11.40
2007,10,23,04,26,11.50
2007,10,23,04,27,11.50
2007,10,23,04,28,11.50
2007,10,23,04,29,11.50
2007,10,23,04,30,11.50
2007,10,23,04,31,11.50
2007,10,23,04,32,11.50
2007,10,23,04,33,11.50
2007,10,23,04,34,11.50
2007,10,23,04,35,11.50
2007,10,23,04,36,11.40
2007,10,23,04,37,11.40
2007,10,23,04,38,11.40
2007,10,23,04,39,11.40
2007,10,23,04,40,11.40
2007,10,23,04,41,11.40
2007,10,23,04,42,11.40
2007,10,23,04,43,11.40
2007,10,23,04,44,11.40
2007,10,23,04,45,11.40
2007,10,23,04,46,11.40
2007,10,23,04,47,11.30
2007,10,23,04,48,11.30
2007,10,23,04,49,11.30
2007,10,23,04,50,11.30
2007,10,23,04,51,11.30
2007,10,23,04,52,11.30
2007,10,23,04,53,11.30
2007,10,23,04,54,11.30
2007,10,23,04,55,11.30
2007,10,23,04,56,11.30
2007,10,23,04,57,11.30
2007,10,23,04,58,11.30
2007,10,23,04,59,11.30
2007,10,23,05,00,11.30
2007,10,23,05,01,11.30
2007,10,23,05,02,11.30
2007,10,23,05,03,11.30
2007,10,23,05,04,11.30
2007,10,23,05,05,11.30
2007,10,23,05,06,11.30
2007,10,23,05,07,11.20
2007,10,23,05,08,11.20
2007,10,23,05,09,11.30
2007,10,23,05,10,11.30
2007,10,23,05,11,11.20
2007,10,23,05,12,11.20
2007,10,23,05,13,11.20
2007,10,23,05,14,11.20
2007,10,23,05,15,11.20
2007,10,23,05,16,11.20
2007,10,23,05,17,11.20
2007,10,23,05,18,11.20
2007,10,23,05,19,11.20
2007,10,23,05,20,11.20
2007,10,23,05,21,11.20
2007,10,23,05,22,11.20
2007,10,23,05,23,11.20
2007,10,23,05,24,11.20
2007,10,23,05,25,11.20
2007,10,23,05,26,11.30
2007,10,23,05,27,11.30
2007,10,23,05,28,11.30
2007,10,23,05,29,11.30
2007,10,23,05,30,11.30
2007,10,23,05,31,11.30
2007,10,23,05,32,11.30
2007,10,23,05,33,11.30
2007,10,23,05,34,11.30
2007,10,23,05,35,11.30
2007,10,23,05,36,11.30
2007,10,23,05,37,11.30
2007,10,23,05,38,11.30
2007,10,23,05,39,11.30
2007,10,23,05,40,11.30
2007,10,23,05,41,11.20
2007,10,23,05,42,11.20
2007,10,23,05,43,11.20
2007,10,23,05,44,11.20
2007,10,23,05,45,11.20
2007,10,23,05,46,11.20
2007,10,23,05,47,11.20
2007,10,23,05,48,11.20
2007,10,23,05,49,11.20
2007,10,23,05,50,11.20
2007,10,23,05,51,11.20
2007,10,23,05,52,11.20
2007,10,23,05,53,11.20
2007,10,23,05,54,11.20
2007,10,23,05,55,11.20
2007,10,23,05,56,11.20
2007,10,23,05,57,11.20
2007,10,23,05,58,11.20
2007,10,23,05,59,11.20
2007,10,23,06,00,11.20
2007,10,23,06,01,11.20
2007,10,23,06,02,11.20
2007,10,23,06,03,11.20
2007,10,23,06,04,11.20
2007,10,23,06,05,11.10
2007,10,23,06,06,11.10
2007,10,23,06,07,11.10
2007,10,23,06,08,11.10
2007,10,23,06,09,11.10
2007,10,23,06,10,11.10
2007,10,23,06,11,11.10
2007,10,23,06,12,11.10
2007,10,23,06,13,11.10
2007,10,23,06,14,11.10
2007,10,23,06,15,11.10
2007,10,23,06,16,11.10
2007,10,23,06,17,11.10
2007,10,23,06,18,11.10
2007,10,23,06,19,11.10
2007,10,23,06,20,11.10
2007,10,23,06,21,11.10
2007,10,23,06,22,11.20
2007,10,23,06,23,11.20
2007,10,23,06,24,11.20
2007,10,23,06,25,11.10
2007,10,23,06,26,11.20
2007,10,23,06,27,11.10
2007,10,23,06,28,11.10
2007,10,23,06,29,11.10
2007,10,23,06,30,11.10
2007,10,23,06,31,11.20
2007,10,23,06,32,11.10
2007,10,23,06,33,11.10
2007,10,23,06,34,11.20
2007,10,23,06,35,11.20
2007,10,23,06,36,11.20
2007,10,23,06,37,11.20
2007,10,23,06,38,11.20
2007,10,23,06,39,11.20
2007,10,23,06,40,11.20
2007,10,23,06,41,11.20
2007,10,23,06,42,11.20
2007,10,23,06,43,11.20
2007,10,23,06,44,11.20
2007,10,23,06,45,11.20
2007,10,23,06,46,11.20
2007,10,23,06,47,11.20
2007,10,23,06,48,11.20
2007,10,23,06,49,11.20
2007,10,23,06,50,11.20
2007,10,23,06,51,11.20
2007,10,23,06,52,11.30
2007,10,23,06,53,11.30
2007,10,23,06,54,11.30
2007,10,23,06,55,11.30
2007,10,23,06,56,11.30
2007,10,23,06,57,11.30
2007,10,23,06,58,11.30
2007,10,23,06,59,11.30
2007,10,23,07,00,11.30
2007,10,23,07,01,11.30
2007,10,23,07,02,11.30
2007,10,23,07,03,11.30
2007,10,23,07,04,11.30
2007,10,23,07,05,11.30
2007,10,23,07,06,11.30
2007,10,23,07,07,11.30
2007,10,23,07,08,11.30
2007,10,23,07,09,11.30
2007,10,23,07,10,11.30
2007,10,23,07,11,11.30
2007,10,23,07,12,11.30
2007,10,23,07,13,11.30
2007,10,23,07,14,11.30
2007,10,23,07,15,11.20
2007,10,23,07,16,11.20
2007,10,23,07,17,11.20
2007,10,23,07,18,11.20
2007,10,23,07,19,11.20
2007,10,23,07,20,11.20
2007,10,23,07,21,11.20
2007,10,23,07,22,11.20
2007,10,23,07,23,11.20
2007,10,23,07,24,11.20
2007,10,23,07,25,11.20
2007,10,23,07,26,11.20
2007,10,23,07,27,11.20
2007,10,23,07,28,11.20
2007,10,23,07,29,11.20
2007,10,23,07,30,11.20
2007,10,23,07,31,11.20
2007,10,23,07,32,11.20
2007,10,23,07,33,11.20
2007,10,23,07,34,11.20
2007,10,23,07,35,11.20
2007,10,23,07,36,11.20
2007,10,23,07,37,11.20
2007,10,23,07,38,11.20
2007,10,23,07,39,11.20
2007,10,23,07,40,11.20
2007,10,23,07,41,11.20
2007,10,23,07,42,11.20
2007,10,23,07,43,11.20
2007,10,23,07,44,11.30
2007,10,23,07,45,11.30
2007,10,23,07,46,11.30
2007,10,23,07,47,11.30
2007,10,23,07,48,11.30
2007,10,23,07,49,11.30
2007,10,23,07,50,11.30
2007,10,23,07,51,11.30
2007,10,23,07,52,11.30
2007,10,23,07,53,11.30
2007,10,23,07,54,11.30
2007,10,23,07,55,11.30
2007,10,23,07,56,11.30
2007,10,23,07,57,11.30
2007,10,23,07,58,11.30
2007,10,23,07,59,11.30
2007,10,23,08,00,11.30
2007,10,23,08,01,11.30
2007,10,23,08,02,11.30
2007,10,23,08,03,11.30
2007,10,23,08,04,11.30
2007,10,23,08,05,11.30
2007,10,23,08,06,11.30
2007,10,23,08,07,11.30
2007,10,23,08,08,11.30
2007,10,23,08,09,11.30
2007,10,23,08,10,11.30
2007,10,23,08,11,11.30
2007,10,23,08,12,11.30
2007,10,23,08,13,11.30
2007,10,23,08,14,11.30
2007,10,23,08,15,11.30
2007,10,23,08,16,11.30
2007,10,23,08,17,11.30
2007,10,23,08,18,11.30
2007,10,23,08,19,11.30
2007,10,23,08,20,11.40
2007,10,23,08,21,11.40
2007,10,23,08,22,11.40
2007,10,23,08,23,11.40
2007,10,23,08,24,11.40
2007,10,23,08,25,11.40
2007,10,23,08,26,11.40
2007,10,23,08,27,11.40
2007,10,23,08,28,11.40
2007,10,23,08,29,11.50
2007,10,23,08,30,11.50
2007,10,23,08,31,11.50
2007,10,23,08,32,11.50
2007,10,23,08,33,11.60
2007,10,23,08,34,11.60
2007,10,23,08,35,11.60
2007,10,23,08,36,11.60
2007,10,23,08,37,11.60
2007,10,23,08,38,11.60
2007,10,23,08,39,11.60
2007,10,23,08,40,11.60
2007,10,23,08,41,11.60
2007,10,23,08,42,11.60
2007,10,23,08,43,11.60
2007,10,23,08,44,11.60
2007,10,23,08,45,11.60
2007,10,23,08,46,11.60
2007,10,23,08,47,11.60
2007,10,23,08,48,11.60
2007,10,23,08,49,11.60
2007,10,23,08,50,11.60
2007,10,23,08,51,11.50
2007,10,23,08,52,11.50
2007,10,23,08,53,11.50
2007,10,23,08,54,11.60
2007,10,23,08,55,11.60
2007,10,23,08,56,11.60
2007,10,23,08,57,11.60
2007,10,23,08,58,11.60
2007,10,23,08,59,11.60
2007,10,23,09,00,11.60
2007,10,23,09,01,11.60
2007,10,23,09,02,11.60
2007,10,23,09,03,11.60
2007,10,23,09,04,11.60
2007,10,23,09,05,11.60
2007,10,23,09,06,11.60
2007,10,23,09,07,11.60
2007,10,23,09,08,11.60
2007,10,23,09,09,11.60
2007,10,23,09,10,11.60
2007,10,23,09,11,11.60
2007,10,23,09,12,11.60
2007,10,23,09,13,11.60
2007,10,23,09,14,11.60
2007,10,23,09,15,11.60
2007,10,23,09,16,11.60
2007,10,23,09,17,11.60
2007,10,23,09,18,11.60
2007,10,23,09,19,11.60
2007,10,23,09,20,11.60
2007,10,23,09,21,11.60
2007,10,23,09,22,11.60
2007,10,23,09,23,11.60
2007,10,23,09,24,11.60
2007,10,23,09,25,11.70
2007,10,23,09,26,11.70
2007,10,23,09,27,11.70
2007,10,23,09,28,11.70
2007,10,23,09,29,11.80
2007,10,23,09,30,11.80
2007,10,23,09,31,11.80
2007,10,23,09,32,11.90
2007,10,23,09,33,12.00
2007,10,23,09,34,12.00
2007,10,23,09,35,12.10
2007,10,23,09,36,12.10
2007,10,23,09,37,12.20
2007,10,23,09,38,12.20
2007,10,23,09,39,12.20
2007,10,23,09,40,12.20
2007,10,23,09,41,12.20
2007,10,23,09,42,12.20
2007,10,23,09,43,12.20
2007,10,23,09,44,12.10
2007,10,23,09,45,12.10
2007,10,23,09,46,12.00
2007,10,23,09,47,12.00
2007,10,23,09,48,11.90
2007,10,23,09,49,11.90
2007,10,23,09,50,11.90
2007,10,23,09,51,11.90
2007,10,23,09,52,11.90
2007,10,23,09,53,11.90
2007,10,23,09,54,11.90
2007,10,23,09,55,11.90
2007,10,23,09,56,12.00
2007,10,23,09,57,12.00
2007,10,23,09,58,12.00
2007,10,23,09,59,12.10
2007,10,23,10,00,12.10
2007,10,23,10,01,12.10
2007,10,23,10,02,12.20
2007,10,23,10,03,12.20
2007,10,23,10,04,12.30
2007,10,23,10,05,12.30
2007,10,23,10,06,12.30
2007,10,23,10,07,12.40
2007,10,23,10,08,12.40
2007,10,23,10,09,12.30
2007,10,23,10,10,12.30
2007,10,23,10,11,12.40
2007,10,23,10,12,12.40
2007,10,23,10,13,12.40
2007,10,23,10,14,12.40
2007,10,23,10,15,12.50
2007,10,23,10,16,12.50
2007,10,23,10,17,12.60
2007,10,23,10,18,12.60
2007,10,23,10,19,12.70
2007,10,23,10,20,12.70
2007,10,23,10,21,12.70
2007,10,23,10,22,12.80
2007,10,23,10,23,12.80
2007,10,23,10,24,12.90
2007,10,23,10,25,12.90
2007,10,23,10,26,13.00
2007,10,23,10,27,13.00
2007,10,23,10,28,13.10
2007,10,23,10,29,13.10
2007,10,23,10,30,13.10
2007,10,23,10,31,13.20
2007,10,23,10,32,13.20
2007,10,23,10,33,13.30
2007,10,23,10,34,13.30
2007,10,23,10,35,13.30
2007,10,23,10,36,13.30
2007,10,23,10,37,13.40
2007,10,23,10,38,13.40
2007,10,23,10,39,13.40
2007,10,23,10,40,13.30
2007,10,23,10,41,13.20
2007,10,23,10,42,13.20
2007,10,23,10,43,13.20
2007,10,23,10,44,13.20
2007,10,23,10,45,13.20
2007,10,23,10,46,13.20
2007,10,23,10,47,13.30
2007,10,23,10,48,13.20
2007,10,23,10,49,13.10
2007,10,23,10,50,13.10
2007,10,23,10,51,13.10
2007,10,23,10,52,13.00
2007,10,23,10,53,13.00
2007,10,23,10,54,13.00
2007,10,23,10,55,13.00
2007,10,23,10,56,13.10
2007,10,23,10,57,13.10
2007,10,23,10,58,13.10
2007,10,23,10,59,13.10
2007,10,23,11,00,13.10
2007,10,23,11,01,13.10
2007,10,23,11,02,13.10
2007,10,23,11,03,13.10
2007,10,23,11,04,13.10
2007,10,23,11,05,13.10
2007,10,23,11,06,13.10
2007,10,23,11,07,13.10
2007,10,23,11,08,13.10
2007,10,23,11,09,13.20
2007,10,23,11,10,13.20
2007,10,23,11,11,13.20
2007,10,23,11,12,13.20
2007,10,23,11,13,13.30
2007,10,23,11,14,13.30
2007,10,23,11,15,13.30
2007,10,23,11,16,13.30
2007,10,23,11,17,13.30
2007,10,23,11,18,13.30
2007,10,23,11,19,13.30
2007,10,23,11,20,13.40
2007,10,23,11,21,13.40
2007,10,23,11,22,13.40
2007,10,23,11,23,13.40
2007,10,23,11,24,13.40
2007,10,23,11,25,13.50
2007,10,23,11,26,13.60
2007,10,23,11,27,13.60
2007,10,23,11,28,13.60
2007,10,23,11,29,13.50
2007,10,23,11,30,13.50
2007,10,23,11,31,13.50
2007,10,23,11,32,13.50
2007,10,23,11,33,13.60
2007,10,23,11,34,13.60
2007,10,23,11,35,13.60
2007,10,23,11,36,13.60
2007,10,23,11,37,13.60
2007,10,23,11,38,13.60
2007,10,23,11,39,13.60
2007,10,23,11,40,13.60
2007,10,23,11,41,13.60
2007,10,23,11,42,13.70
2007,10,23,11,43,13.70
2007,10,23,11,44,13.70
2007,10,23,11,45,13.70
2007,10,23,11,46,13.70
2007,10,23,11,47,13.80
2007,10,23,11,48,13.80
2007,10,23,11,49,13.80
2007,10,23,11,50,13.90
2007,10,23,11,51,13.90
2007,10,23,11,52,14.00
2007,10,23,11,53,14.00
2007,10,23,11,54,14.10
2007,10,23,11,55,14.10
2007,10,23,11,56,14.10
2007,10,23,11,57,14.10
2007,10,23,11,58,14.20
2007,10,23,11,59,14.30
2007,10,23,12,00,14.30
2007,10,23,12,01,14.30
2007,10,23,12,02,14.30
2007,10,23,12,03,14.40
2007,10,23,12,04,14.40
2007,10,23,12,05,14.40
2007,10,23,12,06,14.40
2007,10,23,12,07,14.40
2007,10,23,12,08,14.40
2007,10,23,12,09,14.50
2007,10,23,12,10,14.50
2007,10,23,12,11,14.60
2007,10,23,12,12,14.60
2007,10,23,12,13,14.60
2007,10,23,12,14,14.60
2007,10,23,12,15,14.70
2007,10,23,12,16,14.70
2007,10,23,12,17,14.70
2007,10,23,12,18,14.70
2007,10,23,12,19,14.70
2007,10,23,12,20,14.70
2007,10,23,12,21,14.60
2007,10,23,12,22,14.60
2007,10,23,12,23,14.60
2007,10,23,12,24,14.50
2007,10,23,12,25,14.50
2007,10,23,12,26,14.50
2007,10,23,12,27,14.60
2007,10,23,12,28,14.70
2007,10,23,12,29,14.80
2007,10,23,12,30,14.90
2007,10,23,12,31,15.00
2007,10,23,12,32,15.00
2007,10,23,12,33,15.00
2007,10,23,12,34,15.00
2007,10,23,12,35,15.00
2007,10,23,12,36,15.00
2007,10,23,12,37,15.00
2007,10,23,12,38,15.00
2007,10,23,12,39,15.00
2007,10,23,12,40,15.00
2007,10,23,12,41,15.00
2007,10,23,12,42,15.00
2007,10,23,12,43,14.90
2007,10,23,12,44,14.80
2007,10,23,12,45,14.80
2007,10,23,12,46,14.80
2007,10,23,12,47,14.80
2007,10,23,12,48,14.80
2007,10,23,12,49,14.80
2007,10,23,12,50,14.90
2007,10,23,12,51,15.00
2007,10,23,12,52,15.00
2007,10,23,12,53,15.00
2007,10,23,12,54,15.00
2007,10,23,12,55,15.00
2007,10,23,12,56,15.00
2007,10,23,12,57,15.00
2007,10,23,12,58,15.00
2007,10,23,12,59,15.00
2007,10,23,13,00,15.00
2007,10,23,13,01,15.10
2007,10,23,13,02,15.10
2007,10,23,13,03,15.10
2007,10,23,13,04,15.20
2007,10,23,13,05,15.20
2007,10,23,13,06,15.20
2007,10,23,13,07,15.20
2007,10,23,13,08,15.20
2007,10,23,13,09,15.10
2007,10,23,13,10,15.10
2007,10,23,13,11,15.10
2007,10,23,13,12,15.20
2007,10,23,13,13,15.20
2007,10,23,13,14,15.20
2007,10,23,13,15,15.20
2007,10,23,13,16,15.30
2007,10,23,13,17,15.20
2007,10,23,13,18,15.30
2007,10,23,13,19,15.30
2007,10,23,13,20,15.30
2007,10,23,13,21,15.40
2007,10,23,13,22,15.40
2007,10,23,13,23,15.40
2007,10,23,13,24,15.50
2007,10,23,13,25,15.60
2007,10,23,13,26,15.50
2007,10,23,13,27,15.50
2007,10,23,13,28,15.40
2007,10,23,13,29,15.40
2007,10,23,13,30,15.50
2007,10,23,13,31,15.50
2007,10,23,13,32,15.60
2007,10,23,13,33,15.60
2007,10,23,13,34,15.60
2007,10,23,13,35,15.60
2007,10,23,13,36,15.60
2007,10,23,13,37,15.60
2007,10,23,13,38,15.60
2007,10,23,13,39,15.60
2007,10,23,13,40,15.60
2007,10,23,13,41,15.70
2007,10,23,13,42,15.60
2007,10,23,13,43,15.50
2007,10,23,13,44,15.50
2007,10,23,13,45,15.40
2007,10,23,13,46,15.40
2007,10,23,13,47,15.40
2007,10,23,13,48,15.40
2007,10,23,13,49,15.40
2007,10,23,13,50,15.40
2007,10,23,13,51,15.50
2007,10,23,13,52,15.60
2007,10,23,13,53,15.60
2007,10,23,13,54,15.70
2007,10,23,13,55,15.70
2007,10,23,13,56,15.70
2007,10,23,13,57,15.60
2007,10,23,13,58,15.60
2007,10,23,13,59,15.60
2007,10,23,14,00,15.70
2007,10,23,14,01,15.70
2007,10,23,14,02,15.70
2007,10,23,14,03,15.70
2007,10,23,14,04,15.70
2007,10,23,14,05,15.70
2007,10,23,14,06,15.80
2007,10,23,14,07,15.80
2007,10,23,14,08,15.90
2007,10,23,14,09,15.90
2007,10,23,14,10,16.00
2007,10,23,14,11,16.00
2007,10,23,14,12,16.00
2007,10,23,14,13,16.00
2007,10,23,14,14,16.00
2007,10,23,14,15,16.00
2007,10,23,14,16,15.90
2007,10,23,14,17,15.90
2007,10,23,14,18,16.00
2007,10,23,14,19,16.00
2007,10,23,14,20,16.00
2007,10,23,14,21,16.00
2007,10,23,14,22,15.90
2007,10,23,14,23,15.90
2007,10,23,14,24,15.90
2007,10,23,14,25,15.90
2007,10,23,14,26,15.90
2007,10,23,14,27,15.90
2007,10,23,14,28,15.90
2007,10,23,14,29,15.90
2007,10,23,14,30,16.00
2007,10,23,14,31,16.00
2007,10,23,14,32,16.00
2007,10,23,14,33,16.00
2007,10,23,14,34,15.90
2007,10,23,14,35,15.90
2007,10,23,14,36,15.90
2007,10,23,14,37,16.00
2007,10,23,14,38,16.00
2007,10,23,14,39,16.00
2007,10,23,14,40,15.90
2007,10,23,14,41,16.00
2007,10,23,14,42,15.90
2007,10,23,14,43,15.90
2007,10,23,14,44,16.00
2007,10,23,14,45,16.00
2007,10,23,14,46,16.10
2007,10,23,14,47,16.20
2007,10,23,14,48,16.20
2007,10,23,14,49,16.20
2007,10,23,14,50,16.20
2007,10,23,14,51,16.20
2007,10,23,14,52,16.20
2007,10,23,14,53,16.20
2007,10,23,14,54,16.20
2007,10,23,14,55,16.20
2007,10,23,14,56,16.20
2007,10,23,14,57,16.10
2007,10,23,14,58,16.10
2007,10,23,14,59,16.20
2007,10,23,15,00,16.20
2007,10,23,15,01,16.20
2007,10,23,15,02,16.20
2007,10,23,15,03,16.20
2007,10,23,15,04,16.10
2007,10,23,15,05,16.20
2007,10,23,15,06,16.20
2007,10,23,15,07,16.20
2007,10,23,15,08,16.20
2007,10,23,15,09,16.20
2007,10,23,15,10,16.30
2007,10,23,15,11,16.40
2007,10,23,15,12,16.40
2007,10,23,15,13,16.40
2007,10,23,15,14,16.50
2007,10,23,15,15,16.40
2007,10,23,15,16,16.40
2007,10,23,15,17,16.40
2007,10,23,15,18,16.40
2007,10,23,15,19,16.40
2007,10,23,15,20,16.50
2007,10,23,15,21,16.50
2007,10,23,15,22,16.60
2007,10,23,15,23,16.60
2007,10,23,15,24,16.70
2007,10,23,15,25,16.70
2007,10,23,15,26,16.70
2007,10,23,15,27,16.70
2007,10,23,15,28,16.80
2007,10,23,15,29,16.80
2007,10,23,15,30,16.70
2007,10,23,15,31,16.70
2007,10,23,15,32,16.60
2007,10,23,15,33,16.60
2007,10,23,15,34,16.60
2007,10,23,15,35,16.60
2007,10,23,15,36,16.60
2007,10,23,15,37,16.60
2007,10,23,15,38,16.60
2007,10,23,15,39,16.70
2007,10,23,15,40,16.80
2007,10,23,15,41,16.80
2007,10,23,15,42,16.90
2007,10,23,15,43,17.00
2007,10,23,15,44,17.10
2007,10,23,15,45,17.10
2007,10,23,15,46,17.10
2007,10,23,15,47,17.10
2007,10,23,15,48,17.10
2007,10,23,15,49,17.10
2007,10,23,15,50,17.00
2007,10,23,15,51,17.00
2007,10,23,15,52,17.00
2007,10,23,15,53,17.10
2007,10,23,15,54,17.10
2007,10,23,15,55,17.10
2007,10,23,15,56,17.10
2007,10,23,15,57,17.10
2007,10,23,15,58,17.10
2007,10,23,15,59,17.10
2007,10,23,16,00,17.10
2007,10,23,16,01,17.00
2007,10,23,16,02,17.00
2007,10,23,16,03,17.00
2007,10,23,16,04,17.00
2007,10,23,16,05,17.00
2007,10,23,16,06,16.90
2007,10,23,16,07,16.90
2007,10,23,16,08,16.90
2007,10,23,16,09,17.00
2007,10,23,16,10,17.00
2007,10,23,16,11,17.10
2007,10,23,16,12,17.10
2007,10,23,16,13,17.10
2007,10,23,16,14,17.10
2007,10,23,16,15,17.20
2007,10,23,16,16,17.20
2007,10,23,16,17,17.20
2007,10,23,16,18,17.20
2007,10,23,16,19,17.20
2007,10,23,16,20,17.20
2007,10,23,16,21,17.20
2007,10,23,16,22,17.20
2007,10,23,16,23,17.20
2007,10,23,16,24,17.20
2007,10,23,16,25,17.20
2007,10,23,16,26,17.20
2007,10,23,16,27,17.20
2007,10,23,16,28,17.20
2007,10,23,16,29,17.30
2007,10,23,16,30,17.30
2007,10,23,16,31,17.20
2007,10,23,16,32,17.20
2007,10,23,16,33,17.30
2007,10,23,16,34,17.30
2007,10,23,16,35,17.30
2007,10,23,16,36,17.30
2007,10,23,16,37,17.30
2007,10,23,16,38,17.30
2007,10,23,16,39,17.30
2007,10,23,16,40,17.30
2007,10,23,16,41,17.30
2007,10,23,16,42,17.30
2007,10,23,16,43,17.30
2007,10,23,16,44,17.30
2007,10,23,16,45,17.30
2007,10,23,16,46,17.30
2007,10,23,16,47,17.30
2007,10,23,16,48,17.30
2007,10,23,16,49,17.30
2007,10,23,16,50,17.30
2007,10,23,16,51,17.30
2007,10,23,16,52,17.30
2007,10,23,16,53,17.30
2007,10,23,16,54,17.30
2007,10,23,16,55,17.30
2007,10,23,16,56,17.40
2007,10,23,16,57,17.40
2007,10,23,16,58,17.40
2007,10,23,16,59,17.40
2007,10,23,17,00,17.40
2007,10,23,17,01,17.50
2007,10,23,17,02,17.50
2007,10,23,17,03,17.50
2007,10,23,17,04,17.60
2007,10,23,17,05,17.60
2007,10,23,17,06,17.60
2007,10,23,17,07,17.60
2007,10,23,17,08,17.60
2007,10,23,17,09,17.70
2007,10,23,17,10,17.70
2007,10,23,17,11,17.70
2007,10,23,17,12,17.70
2007,10,23,17,13,17.70
2007,10,23,17,14,17.70
2007,10,23,17,15,17.70
2007,10,23,17,16,17.70
2007,10,23,17,17,17.70
2007,10,23,17,18,17.70
2007,10,23,17,19,17.60